Regional Weather Roundup
Issued by NWS Upton, NY

Current Version | Previous Version | Graphics & Text | Print | Product List | Glossary Off
Versions: 1 2 3 4 5 6 7 8 9 10 11 12 13 14 15 16 17 18 19 20 21 22 23 24 25 26 27 28 29 30 31 32 33 34 35 36 37 38 39 40 41 42 43 44 45 46 47 48 49 50

000
ASUS41 KOKX 301404
RWROKX

REGIONAL WEATHER ROUNDUP
NATIONAL WEATHER SERVICE NEW YORK NY
1000 AM EDT SUN AUG 30 2015

NOTE: "FAIR" INDICATES FEW OR NO CLOUDS BELOW 12,000 FEET WITH NO
SIGNIFICANT WEATHER AND/OR OBSTRUCTIONS TO VISIBILITY.

NYZ071-072-176-178-NJZ106-104-301500-
NEW YORK CITY METRO AREA


CITY           SKY/WX    TMP DP  RH WIND       PRES   REMARKS
CENTRAL PARK   SUNNY     77  62  59 W6        30.14R
LAGUARDIA APRT MOSUNNY   79  64  60 NW3       30.10S
KENNEDY INTL   MOSUNNY   78  65  63 SW7       30.12R
NEWARK/LIBERTY MOSUNNY   79  65  62 VRB3      30.11R
BRNX BOT. GARD   N/A     77  63  61 W2        30.13R
TETERBORO      SUNNY     79  63  57 SW3       30.10R
$$

NYZ177-179-078>081-301500-
LONG ISLAND NEW YORK

CITY           SKY/WX    TMP DP  RH WIND       PRES   REMARKS
FARMINGDALE    SUNNY     79  65  62 VRB3      30.12R
ISLIP          MOSUNNY   80  65  59 SW7       30.10R
SHIRLEY        SUNNY     80  66  62 SW6       30.12R
WESTHAMPTON    SUNNY     80  65  59 W7        30.13R
MONTAUK POINT    N/A     78  66  66 W7        30.12R
$$

NYZ052-065-067-301500-
HUDSON VALLEY

CITY           SKY/WX    TMP DP  RH WIND       PRES   REMARKS
WHITE PLAINS   SUNNY     78  65  63 CALM      30.11S
NEWBURGH       MOSUNNY   72  66  83 VRB6      30.12S
MONTGOMERY     PTSUNNY   74  66  76 S6        30.11S
POUGHKEEPSIE   MOSUNNY   76  64  66 SW6       30.10R
ALBANY         CLOUDY    69  62  78 S5        30.11R
$$

NJZ001-105-106-008-010-013-015-019>022-104-301500-
NEW JERSEY

CITY           SKY/WX    TMP DP  RH WIND       PRES   REMARKS
NEWARK/LIBERTY MOSUNNY   79  65  62 VRB3      30.11R
TETERBORO      SUNNY     79  63  57 SW3       30.10R
CALDWELL       SUNNY     75  63  66 CALM      30.11S
MORRISTOWN     MOSUNNY   81  68  65 SW5       30.11F
SOMERVILLE     SUNNY     76  64  66 CALM      30.10S
SUSSEX         MOSUNNY   73  65  75 SW6       30.11F
ANDOVER          N/A     73  66  78 VRB3      30.13S
TRENTON        SUNNY     77  65  66 W7        30.12R
MILLVILLE      SUNNY     79  64  60 W9        30.15R
ATLANTIC CITY  NOT AVBL
WRIGHTSTOWN    SUNNY     78  67  69 W8        30.10S
TOMS RIVER     SUNNY     79  64  61 SW9       30.13S
BELMAR         SUNNY     79  63  57 W9        30.13R
$$

PAZ047>061-062-071-301500-
EASTERN PENNSYLVANIA

CITY           SKY/WX    TMP DP  RH WIND       PRES   REMARKS
PHILADELPHIA   PTSUNNY   78  65  63 W10       30.14R
ALLENTOWN      SUNNY     75  65  70 SW5       30.12S
SCRANTON       MOSUNNY   74  63  68 VRB3      30.13S
$$

CTZ002-004>006-009-010-012-RIZ004-006-007-MAZ004-011-015-301500-
SOUTHERN NEW ENGLAND
 IN CT

CITY           SKY/WX    TMP DP  RH WIND       PRES   REMARKS
BRADLEY INTL   MOSUNNY   75  62  64 CALM      30.09S
HARTFORD       SUNNY     76  65  68 CALM      30.09S
DANBURY        PTSUNNY   76  64  66 VRB5      30.12S
WTRBRY/OXFORD  MOSUNNY   73  63  68 CALM      30.13S
BRIDGEPORT     SUNNY     77  65  66 SW9       30.10S
MERIDEN        SUNNY     78  64  61 CALM      30.10S
NEW HAVEN      SUNNY     75  65  70 VRB3      30.11R
CHESTER        NOT AVBL
GROTON         SUNNY     77  70  79 SW10      30.09S
WILLIMANTIC    SUNNY     75  63  66 W3        30.11R

 IN RI

CITY           SKY/WX    TMP DP  RH WIND       PRES   REMARKS
PROVIDENCE     SUNNY     78  65  63 W7        30.09S
BLOCK ISLAND   SUNNY     75  68  78 W10       30.12R
WESTERLY       SUNNY     77  67  71 SW7       30.10S

 IN MA

CITY           SKY/WX    TMP DP  RH WIND       PRES   REMARKS
BOSTON         MOSUNNY   77  63  61 W6        30.07S
WORCESTER      PTSUNNY   73  61  65 W8        30.12R
WESTFIELD      PTSUNNY   72  62  71 S3        30.10S
PROVINCETOWN   MOSUNNY   75  63  64 SW13      30.09S
NANTUCKET      SUNNY     76  68  76 SW13      30.11S
$$

ANZ330-335-338-340-345-350-353-355-301500-
COASTAL MARINE OBSERVATIONS


STATION/POSITION TIME  SKY/WX   TEMP    WIND        PRES    VSBY  WAVE
                                AIR SEA DIR/SP/G                  HT/PER
                 (UTC)          (F)     (DEG/KT/KT) (MB)    (MI)  (FT/S)
NY HARB ENTRANCE 1250            73 75  260/  8/ 10 1019.5          3/11
4S FIRE IS       NOT AVBL
20S FIRE ISLAND  1250            74 74  250/ 10/ 12 1019.5          3/11
GREAT SOUTH BAY  1300            74 77  260/ 10/ 14   N/A
23SW MTP         1350            73 72  260/ 12/ 14 1019.5          3/11
HUDSON CANYON    NOT AVBL
KINGS POINT      NOT AVBL
EXECUTION ROCKS  1300            74     230/  6/  8   N/A
CENTRAL LI SOUND NOT AVBL
EASTERN LI SOUND 1300            75 71  260/  8/ 10   N/A
ROBBINS REEF     NOT AVBL
$$


>>>>>>>>>>>>>>>>>>>>>>>>>>>> KEY <<<<<<<<<<<<<<<<<<<<<<<<<<<
>                                                          <
>     SKY/WX - SKY CONDITION/PRESENT WEATHER               <
>     TMP    - TEMPERATURE IN FAHRENHEIT                   <
>     DP     - DEWPOINT IN FAHRENHEIT                      <
>     RH     - RELATIVE HUMIDITY IN PERCENT                <
>     WIND   - DIRECTION AND SPEED IN MPH                  <
>     PRES   - MEAN SEA LEVEL PRESSURE IN INCHES OF HG     <
>     WCI    - WIND CHILL INDEX                            <
>     VSB    - VISIBILITY IN MILES                         <
>     HX     - HEAT INDEX                                  <
>     TC     - TEMPERATURE IN CELSIUS                      <
>     VRB    - VARIABLE WIND DIRECTION                     <
>                                                          <
>>>>>>>>>>>>>>>>>>>>>>>>>>>> KEY <<<<<<<<<<<<<<<<<<<<<<<<<<<




USA.gov is the U.S. government's official web portal to all federal, state and local government web resources and services.